CCA865 ZBAA-LSGG

Flight info

Callsign CCA865
Flight time N/A
Altitude 36100
Route IDKEX2G IDKEX B339 ASILA A575 LHT/K0893S1160 A575 INTIK Y655 AROGU A575 DARNO/K0915F380 P982 TR A308 ABK R104 BA/K0902F400 R229 XV B228 LITUN N869 UNISO L870 RANVA/N0491F400 L870 RESMO DCT LOGNA DCT KEDUX DCT BALIT/K0904F400 DCT KUNER/N0487F400 DCT BEZMI DCT GOVEN DCT GOBAX DCT TADUV DCT TABAT DCT IBAGA DCT DKB N869 TEDGO/N0488F410 N869 NATOR DCT LUTIX DCT BENOT
Aircraft A359/H-SDE2E3GHIJ3J4J5LM1ORWXY/LB1D1

Departure

Time 2026-05-05 03:39
Airport Beijing Capital International Airport (ZBAA)

Arrival

Time N/A
Airport Geneva International Airport (LSGG)
Time Latitude Longitude Altitude Speed Heading
2026-05-05 02:58 40.07212 116.60490 132 ft 0 kts 83°
2026-05-05 03:29 40.07211 116.60470 137 ft 4 kts 83°
2026-05-05 03:29 40.07207 116.60435 121 ft 4 kts 83°
2026-05-05 03:29 40.07205 116.60404 122 ft 4 kts 82°
2026-05-05 03:29 40.07197 116.60376 124 ft 4 kts 22°
2026-05-05 03:30 40.07172 116.60376 126 ft 4 kts 351°
2026-05-05 03:30 40.07165 116.60377 130 ft 0 kts 353°
2026-05-05 03:32 40.07189 116.60373 127 ft 7 kts 353°
2026-05-05 03:33 40.07244 116.60365 127 ft 10 kts 353°
2026-05-05 03:33 40.07319 116.60352 125 ft 3 kts 350°
2026-05-05 03:33 40.07319 116.60351 130 ft 0 kts 350°
2026-05-05 03:33 40.07339 116.60295 127 ft 13 kts 277°
2026-05-05 03:34 40.07330 116.60185 125 ft 12 kts 263°
2026-05-05 03:34 40.07360 116.60089 124 ft 16 kts 332°
2026-05-05 03:34 40.07504 116.60057 126 ft 22 kts 353°
2026-05-05 03:34 40.07656 116.60035 127 ft 22 kts 353°
2026-05-05 03:35 40.07810 116.60011 125 ft 22 kts 353°
2026-05-05 03:35 40.07964 116.59986 125 ft 23 kts 353°
2026-05-05 03:35 40.08121 116.59962 126 ft 23 kts 353°
2026-05-05 03:35 40.08281 116.59937 126 ft 23 kts 353°
2026-05-05 03:36 40.08444 116.59912 126 ft 24 kts 353°
2026-05-05 03:36 40.08609 116.59886 127 ft 24 kts 352°
2026-05-05 03:36 40.08776 116.59859 126 ft 24 kts 354°
2026-05-05 03:36 40.08940 116.59834 127 ft 17 kts 353°
2026-05-05 03:37 40.08987 116.59745 130 ft 13 kts 266°
2026-05-05 03:37 40.08979 116.59652 130 ft 0 kts 263°
2026-05-05 03:37 40.08975 116.59609 130 ft 15 kts 259°
2026-05-05 03:38 40.08912 116.59498 125 ft 13 kts 197°
2026-05-05 03:38 40.08864 116.59498 130 ft 0 kts 173°
2026-05-05 03:38 40.08801 116.59508 127 ft 33 kts 173°
2026-05-05 03:38 40.08359 116.59576 128 ft 93 kts 173°
2026-05-05 03:39 40.07542 116.59705 125 ft 142 kts 173°
2026-05-05 03:39 40.06439 116.59877 372 ft 162 kts 172°
2026-05-05 03:39 40.05375 116.60034 1006 ft 156 kts 173°
2026-05-05 03:39 40.04257 116.60178 1361 ft 169 kts 173°
2026-05-05 03:40 40.03018 116.60356 1583 ft 190 kts 173°
2026-05-05 03:40 40.01643 116.60607 1870 ft 210 kts 172°
2026-05-05 03:40 40.00112 116.60865 2121 ft 233 kts 174°
2026-05-05 03:40 39.98461 116.61141 2649 ft 243 kts 171°
2026-05-05 03:41 39.96755 116.61473 3179 ft 251 kts 176°
2026-05-05 03:41 39.95009 116.61703 3773 ft 253 kts 179°
2026-05-05 03:41 39.93265 116.61926 4503 ft 252 kts 178°
2026-05-05 03:41 39.91512 116.62200 5121 ft 255 kts 178°
2026-05-05 03:42 39.89750 116.62476 5794 ft 255 kts 179°
2026-05-05 03:42 39.87978 116.62769 6401 ft 260 kts 176°
2026-05-05 03:42 39.86227 116.63512 6997 ft 273 kts 157°
2026-05-05 03:42 39.84781 116.65182 7561 ft 288 kts 131°
2026-05-05 03:43 39.84038 116.67650 7813 ft 303 kts 101°
2026-05-05 03:43 39.84261 116.70405 7857 ft 312 kts 77°
2026-05-05 03:43 39.84737 116.73167 7850 ft 313 kts 82°
2026-05-05 03:43 39.85108 116.75921 7848 ft 313 kts 84°
2026-05-05 03:44 39.85449 116.78716 7847 ft 313 kts 84°
2026-05-05 03:44 39.85775 116.81517 7846 ft 313 kts 85°
2026-05-05 03:44 39.86094 116.84320 7846 ft 313 kts 85°
2026-05-05 03:44 39.86410 116.87124 7840 ft 313 kts 85°
2026-05-05 03:45 39.86722 116.89926 7849 ft 312 kts 85°
2026-05-05 03:45 39.87032 116.92721 7850 ft 312 kts 85°
2026-05-05 03:45 39.87341 116.95517 7852 ft 312 kts 84°
2026-05-05 03:45 39.87652 116.98310 8026 ft 313 kts 85°
2026-05-05 03:46 39.87959 117.01131 8656 ft 315 kts 85°
2026-05-05 03:46 39.88268 117.03951 9445 ft 315 kts 85°
2026-05-05 03:46 39.88747 117.06745 10123 ft 320 kts 71°
2026-05-05 03:46 39.89973 117.09222 10431 ft 336 kts 42°
2026-05-05 03:47 39.92002 117.10788 10686 ft 347 kts 14°
2026-05-05 03:47 39.94415 117.11060 10938 ft 354 kts 347°
2026-05-05 03:47 39.96844 117.10328 11211 ft 365 kts 341°
2026-05-05 03:47 39.99378 117.09576 11462 ft 381 kts 345°
2026-05-05 03:48 40.02021 117.08954 11889 ft 390 kts 347°
2026-05-05 03:48 40.04716 117.08397 12485 ft 393 kts 347°
2026-05-05 03:48 40.07427 117.07847 13116 ft 395 kts 348°
2026-05-05 03:48 40.10153 117.07313 13721 ft 397 kts 348°
2026-05-05 03:49 40.12898 117.06788 14270 ft 400 kts 348°
2026-05-05 03:49 40.15655 117.06267 14854 ft 402 kts 349°
2026-05-05 03:49 40.18431 117.05747 15408 ft 404 kts 349°
2026-05-05 03:49 40.21221 117.05227 15961 ft 407 kts 349°
2026-05-05 03:50 40.24032 117.04706 16540 ft 409 kts 349°
2026-05-05 03:50 40.26855 117.04181 17108 ft 411 kts 349°
2026-05-05 03:50 40.29658 117.03659 17669 ft 414 kts 349°
2026-05-05 03:50 40.32514 117.03125 18192 ft 416 kts 349°
2026-05-05 03:51 40.35398 117.02621 18618 ft 421 kts 351°
2026-05-05 03:51 40.38327 117.02281 19070 ft 424 kts 352°
2026-05-05 03:51 40.41275 117.01975 19572 ft 426 kts 352°
2026-05-05 03:51 40.44026 117.01681 20016 ft 427 kts 352°
2026-05-05 03:52 40.46995 117.01354 20495 ft 430 kts 352°
2026-05-05 03:52 40.49970 117.00915 20997 ft 430 kts 346°
2026-05-05 03:52 40.52794 116.99713 21477 ft 426 kts 330°
2026-05-05 03:52 40.55212 116.97514 21970 ft 422 kts 314°
2026-05-05 03:53 40.56536 116.95580 22331 ft 421 kts 306°
2026-05-05 03:53 40.58847 116.91459 23010 ft 424 kts 303°
2026-05-05 03:53 40.59984 116.89359 23365 ft 426 kts 303°
2026-05-05 03:53 40.61707 116.86181 23788 ft 428 kts 303°
2026-05-05 03:54 40.63446 116.82986 24233 ft 430 kts 304°
2026-05-05 03:54 40.65191 116.79786 24682 ft 431 kts 304°
2026-05-05 03:54 40.66946 116.76568 25120 ft 434 kts 304°
2026-05-05 03:54 40.68712 116.73336 25544 ft 435 kts 304°
2026-05-05 03:55 40.70483 116.70090 25938 ft 438 kts 304°
2026-05-05 03:55 40.72270 116.66822 26356 ft 440 kts 304°
2026-05-05 03:55 40.74210 116.63684 26794 ft 444 kts 311°
2026-05-05 03:55 40.76497 116.60924 27198 ft 449 kts 320°
2026-05-05 03:56 40.79134 116.58676 27595 ft 455 kts 329°
2026-05-05 03:56 40.82059 116.57030 27998 ft 461 kts 339°
2026-05-05 03:56 40.85203 116.56052 28392 ft 468 kts 347°
2026-05-05 03:56 40.88451 116.55521 28768 ft 473 kts 350°
2026-05-05 03:57 40.91741 116.55167 29133 ft 476 kts 352°
2026-05-05 03:57 40.95063 116.54893 29462 ft 479 kts 352°
2026-05-05 03:57 40.98398 116.54642 29782 ft 481 kts 352°
2026-05-05 03:57 41.01749 116.54382 30078 ft 483 kts 352°
2026-05-05 03:58 41.05095 116.54108 30455 ft 481 kts 352°
2026-05-05 03:58 41.08437 116.53818 30810 ft 481 kts 352°
2026-05-05 03:58 41.11767 116.53517 31197 ft 479 kts 351°
2026-05-05 03:58 41.15087 116.53209 31587 ft 478 kts 351°
2026-05-05 03:59 41.18398 116.52892 31917 ft 477 kts 351°
2026-05-05 03:59 41.21662 116.52287 32264 ft 471 kts 344°
2026-05-05 03:59 41.24799 116.51143 32587 ft 465 kts 336°
2026-05-05 03:59 41.27749 116.49441 32866 ft 461 kts 328°
2026-05-05 04:00 41.30560 116.47413 33182 ft 459 kts 327°
2026-05-05 04:00 41.33321 116.45292 33541 ft 457 kts 325°
2026-05-05 04:00 41.36041 116.43133 33857 ft 455 kts 325°
2026-05-05 04:00 41.38745 116.40964 34118 ft 453 kts 325°
2026-05-05 04:01 41.41449 116.38801 34275 ft 454 kts 325°
2026-05-05 04:01 41.44161 116.36633 34451 ft 455 kts 325°
2026-05-05 04:01 41.46872 116.34466 34668 ft 454 kts 325°
2026-05-05 04:01 41.49583 116.32301 34919 ft 454 kts 325°
2026-05-05 04:02 41.52288 116.30145 35107 ft 453 kts 325°
2026-05-05 04:02 41.54960 116.28016 35308 ft 453 kts 325°
2026-05-05 04:02 41.57665 116.25861 35518 ft 452 kts 325°
2026-05-05 04:02 41.60362 116.23711 35729 ft 452 kts 325°
2026-05-05 04:03 41.65777 116.19387 35769 ft 455 kts 325°
2026-05-05 04:03 41.71212 116.15038 35756 ft 455 kts 325°
2026-05-05 04:04 41.76652 116.10679 35749 ft 455 kts 325°
2026-05-05 04:04 41.82088 116.06314 35744 ft 455 kts 325°
2026-05-05 04:05 41.87521 116.01942 35734 ft 456 kts 325°
2026-05-05 04:05 41.92848 115.97362 35726 ft 452 kts 319°
2026-05-05 04:06 41.97162 115.91431 35733 ft 444 kts 303°
2026-05-05 04:06 42.00358 115.84355 35720 ft 443 kts 298°
2026-05-05 04:07 42.03301 115.77074 35714 ft 443 kts 297°
2026-05-05 04:07 42.06211 115.69764 35715 ft 443 kts 297°
2026-05-05 04:08 42.09135 115.62465 35713 ft 441 kts 297°
2026-05-05 04:08 42.12055 115.55204 35709 ft 440 kts 297°
2026-05-05 04:09 42.14968 115.47950 35711 ft 440 kts 297°
2026-05-05 04:09 42.17876 115.40690 35706 ft 440 kts 297°
2026-05-05 04:10 42.20776 115.33430 35704 ft 439 kts 297°
2026-05-05 04:10 42.23662 115.26187 35702 ft 438 kts 297°
2026-05-05 04:11 42.26470 115.18894 35694 ft 438 kts 296°
2026-05-05 04:11 42.29196 115.11540 35696 ft 438 kts 296°
2026-05-05 04:12 42.31917 115.04201 35689 ft 435 kts 296°
2026-05-05 04:12 42.34641 114.96889 35684 ft 435 kts 296°
2026-05-05 04:13 42.37364 114.89580 35681 ft 435 kts 296°
2026-05-05 04:13 42.40080 114.82274 35673 ft 435 kts 296°
2026-05-05 04:14 42.42794 114.74953 35667 ft 435 kts 296°
2026-05-05 04:14 42.45482 114.67679 35667 ft 435 kts 296°
2026-05-05 04:15 42.48186 114.60348 35662 ft 435 kts 296°
2026-05-05 04:15 42.50882 114.53017 35665 ft 435 kts 296°
2026-05-05 04:16 42.53565 114.45702 35657 ft 433 kts 296°
2026-05-05 04:16 42.56237 114.38399 35647 ft 432 kts 296°
2026-05-05 04:17 42.58905 114.31088 35635 ft 432 kts 296°
2026-05-05 04:17 42.61566 114.23776 35636 ft 432 kts 296°
2026-05-05 04:18 42.64244 114.16494 35628 ft 431 kts 297°
2026-05-05 04:18 42.67030 114.09297 35629 ft 431 kts 297°
2026-05-05 04:19 42.69834 114.02089 35629 ft 431 kts 297°
2026-05-05 04:19 42.72613 113.94879 35619 ft 430 kts 297°
2026-05-05 04:20 42.75372 113.87670 35620 ft 429 kts 297°
2026-05-05 04:20 42.78104 113.80505 35617 ft 429 kts 297°
2026-05-05 04:21 42.80847 113.73293 35617 ft 429 kts 297°
2026-05-05 04:21 42.83586 113.66077 35618 ft 429 kts 297°
2026-05-05 04:22 42.86315 113.58867 35614 ft 428 kts 297°
2026-05-05 04:22 42.89037 113.51659 35614 ft 427 kts 297°
2026-05-05 04:23 42.91754 113.44448 35615 ft 428 kts 297°
2026-05-05 04:23 42.94469 113.37222 35619 ft 428 kts 297°
2026-05-05 04:24 42.97170 113.30015 35613 ft 426 kts 297°
2026-05-05 04:25 43.01202 113.19220 35616 ft 425 kts 297°
2026-05-05 04:25 43.03921 113.12047 35615 ft 425 kts 297°
2026-05-05 04:26 43.06670 113.04899 35615 ft 424 kts 297°
2026-05-05 04:26 43.09402 112.97769 35616 ft 423 kts 297°
2026-05-05 04:27 43.12120 112.90636 35620 ft 423 kts 297°
2026-05-05 04:27 43.14832 112.83490 35621 ft 423 kts 297°
2026-05-05 04:28 43.17535 112.76348 35620 ft 422 kts 297°
2026-05-05 04:28 43.20228 112.69219 35621 ft 421 kts 297°
2026-05-05 04:29 43.22896 112.62136 35629 ft 421 kts 297°
2026-05-05 04:29 43.25577 112.55001 35632 ft 421 kts 297°
2026-05-05 04:30 43.28252 112.47864 35638 ft 420 kts 297°
2026-05-05 04:30 43.30916 112.40739 35642 ft 419 kts 297°
2026-05-05 04:31 43.33574 112.33613 35637 ft 419 kts 297°
2026-05-05 04:31 43.36227 112.26480 35665 ft 419 kts 296°
2026-05-05 04:32 43.38909 112.19349 35636 ft 421 kts 299°
2026-05-05 04:32 43.42399 112.12875 35654 ft 425 kts 311°
2026-05-05 04:33 43.47061 112.07808 35647 ft 430 kts 322°
2026-05-05 04:33 43.52145 112.03424 35647 ft 432 kts 324°
2026-05-05 04:34 43.57292 111.99156 35668 ft 432 kts 324°
2026-05-05 04:34 43.62439 111.94871 35684 ft 432 kts 324°
2026-05-05 04:35 43.67477 111.90364 35670 ft 429 kts 318°
2026-05-05 04:35 43.71847 111.84813 35683 ft 426 kts 312°
2026-05-05 04:36 43.76022 111.78990 35681 ft 426 kts 311°
2026-05-05 04:36 43.80157 111.73115 35686 ft 426 kts 311°
2026-05-05 04:37 43.84285 111.67253 35689 ft 425 kts 311°
2026-05-05 04:37 43.88413 111.61400 35726 ft 425 kts 311°
2026-05-05 04:38 43.92545 111.55537 35696 ft 426 kts 311°
2026-05-05 04:38 43.96682 111.49655 35705 ft 426 kts 311°
2026-05-05 04:39 44.00807 111.43776 35723 ft 425 kts 311°
2026-05-05 04:39 44.04232 111.38887 35721 ft 424 kts 311°
2026-05-05 04:40 44.08344 111.33004 35745 ft 424 kts 311°
2026-05-05 04:40 44.12452 111.27114 35741 ft 424 kts 311°
2026-05-05 04:41 44.16585 111.21177 35774 ft 424 kts 310°
2026-05-05 04:41 44.20654 111.15318 35758 ft 424 kts 310°
2026-05-05 04:42 44.24749 111.09407 35768 ft 424 kts 310°
2026-05-05 04:42 44.28842 111.03489 35777 ft 424 kts 310°
2026-05-05 04:43 44.32933 110.97562 35775 ft 424 kts 310°
2026-05-05 04:43 44.37010 110.91641 35777 ft 422 kts 310°
2026-05-05 04:44 44.41107 110.85678 35782 ft 422 kts 310°
2026-05-05 04:44 44.45171 110.79751 35793 ft 422 kts 310°
2026-05-05 04:45 44.49234 110.73811 35786 ft 423 kts 310°
2026-05-05 04:45 44.53296 110.67863 35785 ft 422 kts 310°
2026-05-05 04:46 44.57344 110.61921 35786 ft 421 kts 310°
2026-05-05 04:46 44.61390 110.55969 35793 ft 421 kts 310°
2026-05-05 04:47 44.65428 110.50016 35795 ft 421 kts 310°
2026-05-05 04:47 44.69463 110.44054 35794 ft 421 kts 309°
2026-05-05 04:48 44.73495 110.38084 35806 ft 421 kts 309°
2026-05-05 04:48 44.77524 110.32106 35795 ft 421 kts 309°
2026-05-05 04:49 44.81551 110.26117 35808 ft 421 kts 309°
2026-05-05 04:49 44.85575 110.20119 35813 ft 421 kts 309°
2026-05-05 04:50 44.89597 110.14113 35828 ft 421 kts 309°
2026-05-05 04:50 44.93517 110.08063 35814 ft 420 kts 307°
2026-05-05 04:51 44.97311 110.01805 35824 ft 419 kts 307°
2026-05-05 04:51 45.01094 109.95537 35843 ft 419 kts 307°
2026-05-05 04:52 45.04901 109.89285 35841 ft 420 kts 307°
2026-05-05 04:52 45.08712 109.83048 35848 ft 418 kts 307°
2026-05-05 04:53 45.12516 109.76813 35846 ft 418 kts 307°
2026-05-05 04:53 45.16317 109.70567 35856 ft 418 kts 307°
2026-05-05 04:54 45.20111 109.64316 35855 ft 418 kts 307°
2026-05-05 04:54 45.23893 109.58073 35863 ft 415 kts 306°
2026-05-05 04:55 45.27628 109.51893 35866 ft 412 kts 306°
2026-05-05 04:55 45.31348 109.45721 35869 ft 411 kts 306°
2026-05-05 04:56 45.35062 109.39542 35871 ft 411 kts 306°
2026-05-05 04:56 45.38773 109.33357 35874 ft 411 kts 306°
2026-05-05 04:57 45.42483 109.27163 35879 ft 411 kts 306°
2026-05-05 04:57 45.46187 109.20964 35879 ft 411 kts 306°
2026-05-05 04:58 45.49865 109.14796 35884 ft 411 kts 306°
2026-05-05 04:58 45.53562 109.08582 35888 ft 411 kts 306°
2026-05-05 04:59 45.57255 109.02360 35895 ft 411 kts 305°
2026-05-05 04:59 45.60947 108.96125 35893 ft 411 kts 305°
2026-05-05 05:00 45.64637 108.89883 35901 ft 411 kts 305°
2026-05-05 05:00 45.68322 108.83635 35904 ft 411 kts 305°
2026-05-05 05:01 45.72002 108.77379 35907 ft 411 kts 305°
2026-05-05 05:01 45.75682 108.71112 35907 ft 412 kts 305°
2026-05-05 05:02 45.79378 108.64847 35914 ft 412 kts 305°
2026-05-05 05:02 45.83076 108.58581 35913 ft 412 kts 305°
2026-05-05 05:03 45.86769 108.52305 35955 ft 412 kts 304°
2026-05-05 05:03 45.90438 108.46050 35912 ft 413 kts 304°
2026-05-05 05:04 45.94134 108.39735 35917 ft 413 kts 304°
2026-05-05 05:04 45.97824 108.33417 35926 ft 413 kts 304°
2026-05-05 05:05 46.01512 108.27089 35934 ft 413 kts 304°
2026-05-05 05:05 46.05194 108.20754 35931 ft 412 kts 304°
2026-05-05 05:06 46.08873 108.14411 35945 ft 413 kts 304°
2026-05-05 05:06 46.12547 108.08062 35938 ft 412 kts 304°
2026-05-05 05:07 46.16214 108.01709 35968 ft 412 kts 304°
2026-05-05 05:07 46.19880 107.95345 35943 ft 413 kts 304°
2026-05-05 05:08 46.23543 107.88971 35939 ft 413 kts 304°
2026-05-05 05:08 46.27207 107.82582 35951 ft 412 kts 304°
2026-05-05 05:09 46.30862 107.76193 35945 ft 412 kts 304°
2026-05-05 05:09 46.34510 107.69800 35945 ft 412 kts 304°
2026-05-05 05:10 46.38156 107.63398 35945 ft 412 kts 304°
2026-05-05 05:10 46.41797 107.56989 35954 ft 412 kts 304°
2026-05-05 05:11 46.45408 107.50617 35975 ft 412 kts 304°
2026-05-05 05:11 46.49039 107.44195 35957 ft 412 kts 304°
2026-05-05 05:12 46.52668 107.37763 35953 ft 412 kts 304°
2026-05-05 05:12 46.56293 107.31320 35952 ft 412 kts 304°
2026-05-05 05:13 46.59914 107.24873 35956 ft 412 kts 304°
2026-05-05 05:13 46.63533 107.18414 35948 ft 412 kts 303°
2026-05-05 05:14 46.67146 107.11949 35951 ft 411 kts 303°
2026-05-05 05:14 46.70755 107.05477 35970 ft 412 kts 303°
2026-05-05 05:15 46.74359 106.98998 35991 ft 412 kts 303°
2026-05-05 05:15 46.77956 106.92516 35972 ft 411 kts 303°
2026-05-05 05:16 46.81574 106.85983 35973 ft 411 kts 303°
2026-05-05 05:16 46.85160 106.79483 35982 ft 411 kts 303°
2026-05-05 05:17 46.88695 106.72924 35985 ft 411 kts 302°
2026-05-05 05:17 46.92187 106.66390 35997 ft 410 kts 302°
2026-05-05 05:18 46.95705 106.59812 35996 ft 411 kts 302°
2026-05-05 05:18 46.99228 106.53227 36002 ft 411 kts 302°
2026-05-05 05:19 47.02750 106.46632 36005 ft 411 kts 302°
2026-05-05 05:19 47.06288 106.39991 36002 ft 410 kts 302°